Simultaneous Nadir Overpasses (SNOs) Predictions

Prediction of SNOs between LANDSAT-8 and NOAA-19 Satellite Orbit:

Table of predicted SNOs for the next 14.0 days since TLE Epoch: 2/6/2015
Index Date (LANDSAT-8) Time (LANDSAT-8) Lat,Lon (LANDSAT-8) SZA (LANDSAT-8 ) Date (NOAA-19) Time (NOAA-19) Lat,Lon (NOAA-19) SZA (NOAA-19 ) Distance(km) Time Diff (sec)
1 02/06/2015 18:04:58 -72.77, 89.31 91.77 02/06/2015 18:04:45 -72.78, 89.23 91.75 2.73 13
2 02/06/2015 18:54:33 72.24,-104.02 87.72 02/06/2015 18:55:42 72.23,-102.40 87.68 55.05 69
3 02/08/2015 22:49:13 -72.82, 18.34 92.40 02/08/2015 22:48:17 -72.82, 18.30 92.40 1.37 56
4 02/08/2015 23:38:40 72.72,-174.20 87.50 02/08/2015 23:39:23 72.71,-174.26 87.49 2.23 43
5 02/11/2015 04:22:55 72.76, 114.79 86.82 02/11/2015 04:22:55 72.76, 114.80 86.83 0.24 0
6 02/11/2015 05:12:31 -72.33, -78.38 93.61 02/11/2015 05:13:41 -72.31, -77.00 93.65 46.55 70
7 02/13/2015 09:07:09 72.83, 43.86 86.16 02/13/2015 09:06:27 72.81, 43.83 86.15 1.65 42
8 02/13/2015 09:56:39 -72.71,-148.72 93.97 02/13/2015 09:57:20 -72.71,-148.68 93.97 1.39 41
9 02/15/2015 13:51:17 73.19, -26.48 85.77 02/15/2015 13:50:07 73.27, -28.04 85.88 50.65 70
10 02/15/2015 14:40:53 -72.76, 140.31 94.66 02/15/2015 14:40:52 -72.77, 140.36 94.66 1.68 1
11 02/17/2015 19:25:06 -72.85, 69.40 95.35 02/17/2015 19:24:24 -72.83, 69.38 95.36 2.41 42
12 02/17/2015 20:14:33 72.75,-123.15 84.55 02/17/2015 20:15:30 72.75,-123.22 84.55 2.51 57
13 02/20/2015 00:09:14 -73.18, -1.01 95.80 02/20/2015 00:08:03 -73.24, -2.38 95.72 44.49 71
14 02/20/2015 00:58:47 72.76, 165.81 83.78 02/20/2015 00:59:01 72.77, 165.87 83.80 2.79 14




NCC Satellite Simultaneous Nadir Overpasses (SNOs) Prediction Service
